[Iaude] MPEC Q90: 2015 RG277 [a=42.84,e=0.01,i=12.1,H=6.9]

mpec at mpcdb1.cfa.harvard.edu mpec at mpcdb1.cfa.harvard.edu
Wed Aug 29 14:33:16 EDT 2018


M.P.E.C. 2018-Q90                                Issued 2018 Aug. 29, 18:30 UT
 
     The Minor Planet Electronic Circulars contain information on unusual
         minor planets and routine data on comets.  They are published
    on behalf of Division F of the International Astronomical Union by the
          Minor Planet Center, Smithsonian Astrophysical Observatory,
                          Cambridge, MA 02138, U.S.A.

             Prepared using the Tamkin Foundation Computer Network

                              MPC at CFA.HARVARD.EDU
            URL https://www.minorplanetcenter.net/    ISSN 1523-6714


                                  2015 RG277
 
Observations:
     K15RR7G @C2015 06 23.57437 00 21 48.515+04 27 21.55         23.3 rqEQ090568
     K15RR7G @C2015 07 14.57959 00 21 55.905+04 28 10.70         23.3 rqEQ090568
     K15RR7G @C2015 07 19.55857 00 21 52.224+04 27 46.78         23.3 rqEQ090568
     K15RR7G @C2015 08 13.46351 00 21 04.984+04 22 32.45         23.1 rqEQ090568
     K15RR7G @C2015 08 13.50454 00 21 04.841+04 22 31.30         23.2 rqEQ090568
     K15RR7G @C2015 08 13.51692 00 21 04.816+04 22 31.36         23.3 rqEQ090568
     K15RR7G @C2015 08 13.55793 00 21 04.690+04 22 30.52         23.1 rqEQ090568
     K15RR7G @C2015 08 13.61289 00 21 04.533+04 22 29.34         23.2 rqEQ090568
     K15RR7G @C2015 08 19.52618 00 20 46.949+04 20 30.60         23.3 rqEQ090568
     K15RR7G @C2015 08 19.56719 00 20 46.812+04 20 29.75         23.4 rqEQ090568
     K15RR7G @C2015 08 19.59622 00 20 46.719+04 20 29.21         23.2 rqEQ090568
     K15RR7G @C2015 08 20.39916 00 20 44.182+04 20 11.97         23.1 rqEQ090568
     K15RR7G @C2015 08 20.44552 00 20 44.029+04 20 10.92         23.1 rqEQ090568
     K15RR7G*@C2015 09 09.37247 00 19 30.652+04 11 47.45         23.1 rqEQ090568
     K15RR7G @C2015 09 09.41679 00 19 30.469+04 11 46.19         23.2 rqEQ090568
     K15RR7G @C2015 09 09.45780 00 19 30.295+04 11 45.02         23.2 rqEQ090568
     K15RR7G @C2015 09 18.43550 00 18 52.635+04 07 21.87         23.3 wqEQ090568
     K15RR7G @C2015 10 08.32355 00 17 26.267+03 57 04.34         23.3 wqEQ090568
     K15RR7G @C2015 10 08.37618 00 17 26.036+03 57 02.70         23.4 wqEQ090568
     K15RR7G @C2015 10 09.29322 00 17 22.115+03 56 34.05         23.3 wqEQ090568
     K15RR7G @C2015 11 10.40631 00 15 22.431+03 41 20.50         23.4 wqEQ090568
     K15RR7G @C2015 11 15.27356 00 15 08.984+03 39 28.61         22.9 wqEQ090568
     K15RR7G @C2015 12 08.21785 00 14 29.635+03 33 07.59         23.6 wqEQ090568
     K15RR7G @C2016 01 01.28060 00 14 37.057+03 31 36.84         23.3 wqEQ090568
     K15RR7G @C2016 09 05.51068 00 24 57.491+04 28 55.72         23.3 wqEQ090568
     K15RR7G @C2016 09 07.45091 00 24 49.800+04 28 02.30         23.3 wqEQ090568
     K15RR7G @C2016 09 07.49637 00 24 49.610+04 28 01.08         23.4 wqEQ090568
     K15RR7G @C2016 09 26.52564 00 23 29.085+04 18 35.76         23.2 wqEQ090568
     K15RR7G @C2016 10 26.25089 00 21 24.382+04 03 25.95         23.0 rqEQ090568
     K15RR7G @C2016 10 26.32563 00 21 24.080+04 03 23.93         23.3 rqEQ090568
     K15RR7G @C2016 10 26.39142 00 21 23.823+04 03 22.00         23.1 rqEQ090568
     K15RR7G @C2016 10 30.34056 00 21 09.254+04 01 31.14         23.4 wqEQ090568
     K15RR7G @C2016 11 03.29270 00 20 55.438+03 59 44.53         23.4 wqEQ090568
     K15RR7G @C2016 11 03.34512 00 20 55.254+03 59 43.14         23.5 wqEQ090568
     K15RR7G @C2017 01 02.23304 00 19 45.816+03 47 07.77         23.2 wqEQ090568
     K15RR7G @C2017 01 26.21860 00 20 44.502+03 51 23.24         23.5 wqEQ090568
 
Observer details:
568 Mauna Kea.  Observers M. T. Bannister, J. J. Kavelaars, B. J. Gladman,
    J.-M. Petit, T. Burdullis.  Measurers S. D. J. Gwyn, Y.-T. Chen,
    M. Alexandersen, M. Schwamb.  3.6-m Canada-France-Hawaii Telescope + CCD.
 
Orbital elements:
2015 RG277
Epoch 2018 Mar. 23.0 TT = JDT 2458200.5                 MPC
M 318.63264              (2000.0)            P               Q
n   0.00351520     Peri.  216.53281     +0.63312038     -0.77228330
a  42.8386509      Node   194.43075     +0.75057335     +0.62903248
e   0.0106221      Incl.   12.11842     +0.18920420     +0.08886309
P 280              H    6.9           G   0.15           U   4
Residuals in seconds of arc
150623 568  0.0   0.0     150820 568  0.0   0.0     160905 568  0.0   0.0
150714 568  0.1-  0.1-    150909 568  0.0   0.1+    160907 568  0.0   0.0
150719 568  0.1-  0.0     150909 568  0.0   0.1+    160907 568  0.1-  0.0
150813 568  0.3+  0.2+    150909 568  0.0   0.0     160926 568  0.0   0.0
150813 568  0.1-  0.2-    150918 568  0.1+  0.0     161026 568  0.2+  0.1-
150813 568  0.1+  0.1+    151008 568  0.0   0.0     161026 568  0.0   0.0
150813 568  0.0   0.0     151008 568  0.0   0.0     161026 568  0.0   0.0
150813 568  0.0   0.1-    151009 568  0.1+  0.0     161030 568  0.0   0.0
150819 568  0.0   0.1-    151110 568  0.1-  0.0     161103 568  0.0   0.0
150819 568  0.0   0.1-    151115 568  0.1-  0.1+    161103 568  0.0   0.0
150819 568  0.0   0.0     151208 568  0.0   0.0     170102 568  0.0   0.0
150820 568  0.0   0.1+    160101 568  0.1-  0.1+    170126 568  0.0   0.0

Ephemeris:
2015 RG277               a,e,i = 42.84, 0.01, 12                 q = 42.384
Date    TT    R. A. (2000) Decl.     Delta      r     Elong.  Phase     V
2018 07 30    00 37 12.1 +05 12 11  42.0428 42.4970   116.0     1.2    23.3
...
2018 08 14    00 36 41.8 +05 08 35  41.8322 42.4967   130.5     1.0    23.3
...
2018 08 22    00 36 19.2 +05 05 57  41.7364 42.4966   138.3     0.9    23.3
...
2018 08 28    00 35 59.8 +05 03 42  41.6737 42.4964   144.1     0.8    23.3
2018 08 29    00 35 56.4 +05 03 18  41.6640 42.4964   145.1     0.8    23.3
2018 08 30    00 35 52.9 +05 02 54  41.6546 42.4964   146.1     0.8    23.3
...
2018 09 05    00 35 31.0 +05 00 21  41.6034 42.4963   152.0     0.6    23.3
...
2018 09 13    00 34 59.4 +04 56 41  41.5497 42.4962   159.9     0.5    23.2
...
2018 09 28    00 33 55.6 +04 49 13  41.4978 42.4959   174.8     0.1    23.2

A. U. Tomatic                (C) Copyright 2018 MPC           M.P.E.C. 2018-Q90



More information about the Iaude mailing list